| time (UTC) | temp F | wind direction | speed MPH | gust MPH | rain 1hr in | rain 24hr in | rain mn in | humidity % | barometer mb |
| 20260506014918 | 49 | 23 | 14.0 | 18.0 | 0.00 | 0.00 | 0.00 | 70 | 1012.9 |
| 20260506013938 | 49 | 23 | 9.0 | 16.0 | 0.00 | 0.00 | 0.00 | 69 | 1012.8 |
| 20260506012917 | 49 | 0 | 12.0 | 16.0 | 0.00 | 0.00 | 0.00 | 69 | 1012.7 |
| 20260506011918 | 49 | 23 | 11.0 | 14.0 | 0.00 | 0.00 | 0.00 | 69 | 1012.5 |
| 20260506010917 | 50 | 23 | 10.0 | 13.0 | 0.00 | 0.00 | 0.00 | 69 | 1012.4 |
| 20260506005918 | 50 | 0 | 11.0 | 14.0 | 0.00 | 0.00 | 0.00 | 69 | 1012.2 |
| 20260506004918 | 50 | 0 | 12.0 | 16.0 | 0.00 | 0.00 | 0.00 | 69 | 1011.8 |
| 20260506003959 | 50 | 0 | 9.0 | 13.0 | 0.00 | 0.00 | 0.00 | 69 | 1011.3 |
| 20260506002938 | 50 | 23 | 7.0 | 13.0 | 0.00 | 0.00 | 0.00 | 68 | 1011.3 |
| 20260506001917 | 50 | 0 | 14.0 | 20.0 | 0.00 | 0.00 | 0.00 | 68 | 1011.1 |
| 20260506000918 | 51 | 23 | 12.0 | 17.0 | 0.00 | 0.00 | 0.00 | 67 | 1010.9 |
| 20260505235938 | 51 | 23 | 8.0 | 11.0 | 0.00 | 0.00 | 0.00 | 67 | 1011.0 |
| 20260505234938 | 51 | 0 | 11.0 | 15.0 | 0.00 | 0.00 | 0.00 | 66 | 1010.8 |
| 20260505233918 | 51 | 23 | 8.0 | 14.0 | 0.00 | 0.00 | 0.00 | 66 | 1010.7 |
| 20260505232919 | 51 | 0 | 15.0 | 21.0 | 0.00 | 0.00 | 0.00 | 66 | 1011.0 |
| 20260505231918 | 51 | 23 | 10.0 | 13.0 | 0.00 | 0.00 | 0.00 | 66 | 1011.4 |
| 20260505230929 | 51 | 23 | 12.0 | 15.0 | 0.00 | 0.00 | 0.00 | 66 | 1011.2 |
| 20260505225938 | 52 | 0 | 10.0 | 15.0 | 0.00 | 0.00 | 0.00 | 66 | 1011.0 |
| 20260505224959 | 52 | 23 | 13.0 | 18.0 | 0.00 | 0.00 | 0.00 | 65 | 1010.6 |
| 20260505223918 | 52 | 0 | 11.0 | 14.0 | 0.00 | 0.00 | 0.00 | 64 | 1010.5 |
| 20260505222917 | 53 | 0 | 13.0 | 17.0 | 0.00 | 0.00 | 0.00 | 64 | 1010.6 |
| 20260505221918 | 53 | 0 | 9.0 | 12.0 | 0.00 | 0.00 | 0.00 | 64 | 1010.7 |
| 20260505220918 | 53 | 23 | 9.0 | 14.0 | 0.00 | 0.00 | 0.00 | 63 | 1010.1 |
| 20260505215918 | 54 | 0 | 8.0 | 14.0 | 0.00 | 0.00 | 0.00 | 63 | 1010.1 |
| 20260505214918 | 54 | 0 | 9.0 | 14.0 | 0.00 | 0.00 | 0.00 | 62 | 1010.2 |
| 20260505213917 | 54 | 0 | 15.0 | 19.0 | 0.00 | 0.00 | 0.00 | 62 | 1009.7 |
| 20260505212918 | 55 | 0 | 10.0 | 14.0 | 0.00 | 0.00 | 0.00 | 62 | 1009.4 |
| 20260505211917 | 54 | 23 | 15.0 | 20.0 | 0.00 | 0.00 | 0.00 | 62 | 1009.6 |
| 20260505210917 | 55 | 0 | 15.0 | 22.0 | 0.00 | 0.00 | 0.00 | 62 | 1009.9 |
| 20260505205918 | 55 | 23 | 16.0 | 21.0 | 0.00 | 0.00 | 0.00 | 62 | 1009.2 |
| 20260505204938 | 54 | 23 | 14.0 | 19.0 | 0.00 | 0.00 | 0.00 | 64 | 1009.3 |
| 20260505203918 | 54 | 0 | 15.0 | 22.0 | 0.00 | 0.00 | 0.00 | 64 | 1009.9 |
| 20260505202918 | 54 | 23 | 13.0 | 17.0 | 0.00 | 0.00 | 0.00 | 64 | 1010.3 |
| 20260505201938 | 54 | 0 | 15.0 | 18.0 | 0.00 | 0.00 | 0.00 | 64 | 1009.1 |
| 20260505200918 | 54 | 23 | 9.0 | 12.0 | 0.00 | 0.00 | 0.00 | 65 | 1009.1 |
| 20260505195918 | 54 | 0 | 13.0 | 17.0 | 0.00 | 0.00 | 0.00 | 65 | 1009.0 |
| 20260505194917 | 55 | 23 | 15.0 | 19.0 | 0.00 | 0.00 | 0.00 | 64 | 1009.2 |
| 20260505193938 | 54 | 0 | 17.0 | 23.0 | 0.00 | 0.00 | 0.00 | 66 | 1008.9 |
| 20260505192918 | 54 | 0 | 17.0 | 24.0 | 0.00 | 0.00 | 0.00 | 67 | 1009.0 |
| 20260505191918 | 54 | 0 | 19.0 | 24.0 | 0.00 | 0.00 | 0.00 | 67 | 1009.1 |
| 20260505190918 | 54 | 23 | 12.0 | 20.0 | 0.00 | 0.00 | 0.00 | 67 | 1008.9 |
| 20260505185918 | 54 | 0 | 14.0 | 19.0 | 0.00 | 0.00 | 0.00 | 68 | 1008.8 |
| 20260505184917 | 54 | 0 | 16.0 | 22.0 | 0.00 | 0.00 | 0.00 | 68 | 1008.9 |
| 20260505183938 | 55 | 0 | 14.0 | 21.0 | 0.00 | 0.00 | 0.00 | 68 | 1008.8 |
| 20260505182918 | 55 | 0 | 16.0 | 21.0 | 0.00 | 0.00 | 0.00 | 68 | 1008.7 |
| 20260505181918 | 56 | 338 | 20.0 | 22.0 | 0.00 | 0.00 | 0.00 | 67 | 1008.7 |
| 20260505180917 | 57 | 0 | 14.0 | 18.0 | 0.00 | 0.00 | 0.00 | 66 | 1008.4 |
| 20260505175917 | 57 | 0 | 16.0 | 21.0 | 0.00 | 0.00 | 0.00 | 66 | 1008.2 |
| 20260505174938 | 57 | 0 | 13.0 | 18.0 | 0.00 | 0.00 | 0.00 | 66 | 1008.2 |
| 20260505173917 | 57 | 338 | 15.0 | 20.0 | 0.00 | 0.00 | 0.00 | 67 | 1007.7 |
| 20260505172917 | 57 | 0 | 14.0 | 20.0 | 0.00 | 0.00 | 0.00 | 68 | 1007.9 |
| 20260505171918 | 56 | 23 | 13.0 | 19.0 | 0.00 | 0.00 | 0.00 | 68 | 1007.7 |
| 20260505170917 | 56 | 0 | 11.0 | 15.0 | 0.00 | 0.00 | 0.00 | 68 | 1007.7 |
| 20260505165918 | 56 | 0 | 14.0 | 21.0 | 0.00 | 0.00 | 0.00 | 69 | 1007.3 |
| 20260505164918 | 56 | 0 | 14.0 | 18.0 | 0.00 | 0.00 | 0.00 | 69 | 1007.3 |
| 20260505163918 | 57 | 0 | 12.0 | 15.0 | 0.00 | 0.00 | 0.00 | 70 | 1007.2 |
| 20260505162918 | 57 | 23 | 12.0 | 17.0 | 0.00 | 0.00 | 0.00 | 70 | 1006.7 |
| 20260505161938 | 57 | 0 | 11.0 | 13.0 | 0.00 | 0.00 | 0.00 | 71 | 1006.5 |
| 20260505160918 | 57 | 23 | 16.0 | 20.0 | 0.00 | 0.00 | 0.00 | 70 | 1006.2 |
| 20260505152918 | 59 | 0 | 11.0 | 14.0 | 0.00 | 0.00 | 0.00 | 71 | 1005.2 |
| 20260505151917 | 60 | 0 | 13.0 | 16.0 | 0.00 | 0.00 | 0.00 | 71 | 1004.8 |
| 20260505150919 | 60 | 338 | 18.0 | 26.0 | 0.00 | 0.00 | 0.00 | 70 | 1004.5 |
| 20260505124917 | 68 | 135 | 1.0 | 3.0 | 0.00 | 0.00 | 0.00 | 71 | 1002.4 |
| 20260505123919 | 68 | 90 | 1.0 | 2.0 | 0.00 | 0.00 | 0.00 | 70 | 1002.5 |
| 20260505122918 | 68 | 0.0 | 0.0 | 0.00 | 0.00 | 0.00 | 70 | 1002.6 | |
| 20260505121919 | 68 | 0.0 | 0.0 | 0.00 | 0.00 | 0.00 | 70 | 1002.3 | |
| 20260505120918 | 68 | 338 | 2.0 | 3.0 | 0.00 | 0.00 | 0.00 | 70 | 1002.2 |
| 20260505115920 | 68 | 315 | 1.0 | 3.0 | 0.00 | 0.00 | 0.00 | 69 | 1001.9 |
| 20260505114918 | 68 | 338 | 5.0 | 8.0 | 0.00 | 0.00 | 0.00 | 69 | 1001.8 |
| 20260505113919 | 69 | 315 | 8.0 | 9.0 | 0.00 | 0.00 | 0.00 | 68 | 1001.5 |
| 20260505112918 | 69 | 248 | 3.0 | 7.0 | 0.00 | 0.00 | 0.00 | 68 | 1000.7 |
| 20260505111920 | 69 | 225 | 4.0 | 7.0 | 0.00 | 0.00 | 0.00 | 68 | 1000.5 |
| 20260505110917 | 70 | 248 | 4.0 | 15.0 | 0.00 | 0.00 | 0.00 | 67 | 1000.3 |
| 20260505101919 | 71 | 203 | 8.0 | 13.0 | 0.00 | 0.00 | 0.00 | 66 | 1000.1 |
| 20260505100940 | 71 | 180 | 10.0 | 19.0 | 0.00 | 0.00 | 0.00 | 67 | 1000.1 |
| 20260505095917 | 71 | 248 | 9.0 | 14.0 | 0.00 | 0.00 | 0.00 | 66 | 1000.0 |
| 20260505094919 | 71 | 203 | 7.0 | 13.0 | 0.00 | 0.00 | 0.00 | 66 | 1000.0 |
| 20260505093918 | 71 | 225 | 7.0 | 10.0 | 0.00 | 0.00 | 0.00 | 66 | 1000.0 |
| 20260505092919 | 71 | 180 | 9.0 | 17.0 | 0.00 | 0.00 | 0.00 | 66 | 999.9 |
| 20260505091937 | 71 | 225 | 7.0 | 13.0 | 0.00 | 0.00 | 0.00 | 66 | 999.9 |
| 20260505090919 | 71 | 180 | 8.0 | 14.0 | 0.00 | 0.00 | 0.00 | 66 | 1000.0 |
| 20260505085920 | 71 | 203 | 10.0 | 17.0 | 0.00 | 0.00 | 0.00 | 66 | 1000.2 |
| 20260505084917 | 71 | 203 | 8.0 | 19.0 | 0.00 | 0.00 | 0.00 | 66 | 1000.3 |
| 20260505083918 | 71 | 180 | 9.0 | 16.0 | 0.00 | 0.00 | 0.00 | 66 | 1000.3 |
| 20260505082919 | 71 | 203 | 7.0 | 13.0 | 0.00 | 0.00 | 0.00 | 66 | 1000.5 |
| 20260505081917 | 71 | 180 | 9.0 | 15.0 | 0.00 | 0.00 | 0.00 | 66 | 1000.6 |
| 20260505080919 | 71 | 225 | 7.0 | 11.0 | 0.00 | 0.00 | 0.00 | 66 | 1000.7 |
| 20260505075917 | 72 | 203 | 9.0 | 13.0 | 0.00 | 0.00 | 0.00 | 66 | 1000.7 |
| 20260505074939 | 72 | 180 | 9.0 | 17.0 | 0.00 | 0.00 | 0.00 | 66 | 1000.8 |
| 20260505073917 | 72 | 203 | 10.0 | 15.0 | 0.00 | 0.00 | 0.00 | 66 | 1001.0 |
| 20260505072919 | 72 | 203 | 6.0 | 10.0 | 0.00 | 0.00 | 0.00 | 66 | 1001.2 |
| 20260505071919 | 72 | 225 | 7.0 | 15.0 | 0.00 | 0.00 | 0.00 | 65 | 1001.3 |
| 20260505070919 | 72 | 203 | 11.0 | 18.0 | 0.00 | 0.00 | 0.00 | 65 | 1001.3 |
| 20260505065919 | 72 | 225 | 9.0 | 17.0 | 0.00 | 0.00 | 0.00 | 65 | 1001.4 |
| 20260505064937 | 72 | 203 | 9.0 | 16.0 | 0.00 | 0.00 | 0.00 | 64 | 1001.6 |
| 20260505063920 | 73 | 203 | 11.0 | 17.0 | 0.00 | 0.00 | 0.00 | 64 | 1001.7 |
| 20260505062917 | 73 | 180 | 10.0 | 19.0 | 0.00 | 0.00 | 0.00 | 64 | 1001.7 |
| 20260505061919 | 73 | 180 | 9.0 | 13.0 | 0.00 | 0.00 | 0.00 | 64 | 1001.7 |
| 20260505060919 | 73 | 203 | 10.0 | 16.0 | 0.00 | 0.00 | 0.00 | 63 | 1001.9 |
| 20260505055920 | 73 | 203 | 12.0 | 19.0 | 0.00 | 0.00 | 0.00 | 63 | 1001.8 |
| 20260505054920 | 73 | 180 | 17.0 | 28.0 | 0.00 | 0.00 | 0.00 | 63 | 1002.1 |
| 20260505053919 | 73 | 203 | 11.0 | 15.0 | 0.00 | 0.00 | 0.00 | 63 | 1002.1 |
| 20260505052918 | 73 | 203 | 10.0 | 17.0 | 0.00 | 0.00 | 0.00 | 63 | 1002.1 |
| 20260505051940 | 74 | 180 | 10.0 | 16.0 | 0.00 | 0.00 | 0.00 | 62 | 1002.2 |
| 20260505050917 | 74 | 180 | 13.0 | 20.0 | 0.00 | 0.00 | 0.00 | 62 | 1002.5 |
| 20260505040938 | 74 | 158 | 12.0 | 20.0 | 0.00 | 0.00 | 0.00 | 61 | 1002.6 |
| 20260505035918 | 75 | 203 | 13.0 | 18.0 | 0.00 | 0.00 | 0.00 | 61 | 1002.6 |
| 20260505034918 | 75 | 180 | 10.0 | 16.0 | 0.00 | 0.00 | 0.00 | 61 | 1002.8 |
| 20260505033918 | 75 | 180 | 9.0 | 15.0 | 0.00 | 0.00 | 0.00 | 60 | 1002.8 |
| 20260505032918 | 75 | 180 | 14.0 | 19.0 | 0.00 | 0.00 | 0.00 | 60 | 1002.8 |
| 20260505031918 | 75 | 203 | 11.0 | 15.0 | 0.00 | 0.00 | 0.00 | 60 | 1002.5 |
| 20260505030918 | 75 | 180 | 14.0 | 18.0 | 0.00 | 0.00 | 0.00 | 59 | 1002.5 |
| 20260505025918 | 75 | 248 | 9.0 | 14.0 | 0.00 | 0.00 | 0.00 | 59 | 1002.4 |
| 20260505024918 | 76 | 158 | 10.0 | 14.0 | 0.00 | 0.00 | 0.00 | 59 | 1002.4 |
| 20260505023918 | 76 | 180 | 14.0 | 22.0 | 0.00 | 0.00 | 0.00 | 58 | 1002.1 |
| 20260505022959 | 76 | 158 | 10.0 | 17.0 | 0.00 | 0.00 | 0.00 | 58 | 1002.0 |
| 20260505021918 | 76 | 180 | 9.0 | 16.0 | 0.00 | 0.00 | 0.00 | 57 | 1002.0 |
| 20260505020918 | 76 | 180 | 10.0 | 14.0 | 0.00 | 0.00 | 0.00 | 57 | 1001.8 |
| 20260505015919 | 77 | 180 | 14.0 | 20.0 | 0.00 | 0.00 | 0.00 | 56 | 1001.8 |